This is the latest recevied weather packets stored in our database for station/object KN6CRX. If no packets are shown the sender has not sent any weather packets the latest 10 day(s).
| Time | Temp. | Humidity | Pressure | Rain* | Wind** | Luminosity | Snow |
|---|---|---|---|---|---|---|---|
| 1787862061 | 33.33° C | 25% | 1020.9 hPa | 0 mm | - | 830 W/m² | - |
| 1787861760 | 33.33° C | 26% | 1021.2 hPa | 0 mm | - | 817 W/m² | - |
| 1787861458 | 33.33° C | 25% | 1021 hPa | 0 mm | - | 334 W/m² | - |
| 1787861153 | 32.78° C | 26% | 1021.3 hPa | 0 mm | - | 803 W/m² | - |
| 1787860852 | 32.22° C | 27% | 1021.2 hPa | 0 mm | - | 856 W/m² | - |
| 1787860547 | 32.22° C | 27% | 1021.4 hPa | 0 mm | - | 556 W/m² | - |
| 1787860242 | 32.22° C | 27% | 1021.4 hPa | 0 mm | - | 452 W/m² | - |
| 1787859937 | 32.78° C | 26% | 1021.6 hPa | 0 mm | - | 490 W/m² | - |
| 1787859633 | 32.78° C | 25% | 1021.5 hPa | 0 mm | - | 591 W/m² | - |
| 1787859332 | 32.22° C | 27% | 1021.5 hPa | 0 mm | - | 764 W/m² | - |
| 1787859028 | 32.22° C | 26% | 1021.5 hPa | 0 mm | - | 748 W/m² | - |
| 1787858724 | 32.22° C | 26% | 1021.6 hPa | 0 mm | - | 662 W/m² | - |
| 1787858420 | 32.22° C | 26% | 1021.8 hPa | 0 mm | - | 875 W/m² | - |
| 1787858119 | 31.67° C | 26% | 1021.6 hPa | 0 mm | - | 899 W/m² | - |
| 1787857815 | 32.22° C | 26% | 1021.7 hPa | 0 mm | - | 859 W/m² | - |
| 1787857510 | 31.67° C | 25% | 1022 hPa | 0 mm | - | 847 W/m² | - |
| 1787857209 | 31.11° C | 28% | 1021.7 hPa | 0 mm | - | 841 W/m² | - |
| 1787856903 | 31.67° C | 28% | 1022 hPa | 0 mm | - | 834 W/m² | - |
| 1787856603 | 31.67° C | 27% | 1022.1 hPa | 0 mm | - | 429 W/m² | - |
| 1787856298 | 31.11° C | 29% | 1022.1 hPa | 0 mm | - | 345 W/m² | - |
| 1787855994 | 30.56° C | 30% | 1022.1 hPa | 0 mm | - | 822 W/m² | - |
| 1787855693 | 30° C | 32% | 1022.5 hPa | 0 mm | - | 261 W/m² | - |
| 1787855388 | 29.44° C | 31% | 1022.4 hPa | 0 mm | - | 800 W/m² | - |
| 1787855084 | 28.89° C | 36% | 1022.6 hPa | 0 mm | - | 897 W/m² | - |
| 1787854779 | 27.78° C | 37% | 1022.5 hPa | 0 mm | - | 893 W/m² | - |
* Rain latest hour (hover to see other rain measurements)
** Current wind speed in m/s (hover to see current wind gust speed)